METEOR 2-11 DEB, 40709

Orbit data source: Space-Track

METEOR 2-11 DEB, 40709 is space debris in LEO originally from a launch on Thu, 05 Jul 1984 UTC launched from the Plesetsk Missile And Space Complex (PKMTR). Debris objects in space refer to the collection of defunct objects orbiting the Earth. Examples of debris include non-operational satellites, rocket bodies, and fragments generated from explosions, collisions, or faulty payload assembly.

Loading next visibility...
Identifier
40709, 1984-072L
Orbit
LEO
Last TLE update
4 months ago
Origin
Manufacturer
Unknown
Mission
Spacecraft
Bus & Motor
Unknown
Mass
Unknown
Launch date (UTC)
1984-07-05 (41 years ago)
Launch vehicle
Unknown
Launch site
Plesetsk Missile And Space Complex (PKMTR)
Object type
Payload
Rocket body
Debris
Shape & HBR
Unknown
Radar Cross Section
Small (<0.1 m²)

Expand to show TLE details & history

TLE from 4 months ago
0 METEOR 2-11 DEB
1 40709U 84072L   25001.48204260  .00007336  00000-0  51786-2 0  9993
2 40709  82.5127  73.9505 0008602 342.6776  17.4097 13.97756433769498
Epoch: 2025-01-01T11:34Z
Definitive object data (Epoch: 2025-01-01T11:34:08.48Z)
Latitude
-0.00002°
Longitude
159.04047°
Altitude
898.519 km
Speed
7.406 km/s
True Right ascension
04h 55m 48s
True Declination
0° 00' 00"
Sunlit
Object was in full shadow at TLE epoch
Visualization TLE readout
Latitude
71.58025°
Longitude
77.7057°
Altitude
908.173 km
Speed
7.404 km/s
Apparent Right ascension
01h 28m 21s
Apparent Declination
22° 35' 53"
Sunlit
Object is in daylight
Visualization observer readout
Local Sidereal Time
14:21:58
Azimuth
13.807° NNE
Elevation
-26.246°
Doppler factor
1
Orbital elements
Apogee altitude
904.969 km
Perigee altitude
892.45 km
Semi-major axis
7,276.846 km
Eccentricity
0.0008602
Inclination
82.5127°
RAAN
73.9505°
Arg. of periapsis
342.6776°
True anomaly
17.43922°
Mean anomaly
17.4097°
Eccentric anomaly
17.42446°
Mean motion
3.49646 °/min
BSTAR
0.0051786
Orbital period
102.96 mins
Loading maneuver chart data...
Loading SW <> Apogee altitude chart data...
Loading historical data...
Loading historical data...
Loading historical data...
Loading historical data...
Loading historical data...
Loading historical data...
Loading historical data...

METEOR 2-11 DEB Visibility forecast

Observer location: undefined°, undefined°

Span
Click to sort rows by Start time (UTC) header in descending order
Start Az.
Max El. time (UTC)
Max El. Az.
Max El.
End time (UTC)
End Az.
7 mins2025-05-09 12:52:10.852Z123.374° SE2025-05-09 12:55:10.852Z89.413° E18.399°2025-05-09 12:59:10.852Z43.204° NE
10 mins2025-05-09 14:34:10.852Z207.59° SW2025-05-09 14:39:10.852Z297.228° NW38.361°2025-05-09 14:44:10.852Z357.475° N
10 mins2025-05-10 01:20:10.852Z349.228° N2025-05-10 01:24:10.852Z316.848° NNW43.906°2025-05-10 01:30:10.852Z178.636° S
|